Temp
18 18 18 18 18 17 17 18 19 19 19 19 18 19 18 18 18 17 16 16 15 15 14 13 15 15 15 14 13 13 13 12 12 11 11 10 10 9 9 9 9 9 9 9
17 18 18 18 18 18 18 18 18 18 18 18 17 18 18 18 18 18 17 16 15 16 16 16 16 15 15 14 14 13 13 12 12 11 11 10 10 9 9 8 9 9 9 9
17 17 17 18 18 18 18 18 18 18 18 18 18 18 18 18 18 18 16 16 16 15 16 15 15 15 15 14 14 13 12 11 11 11 11 10 9 9 9 9 9 9 9 9
17 18 19 18 18 18 18 18 18 18 18 18 18 18 18 17 16 16 16 16 15 17 17 15 15 15 15 14 13 13 12 11 11 11 10 9 9 9 9 9 9 9 9 9
17 17 18 17 17 17 18 16 15 17 16 16 16 17 17 15 16 15 15 16 15 15 16 16 15 15 15 14 14 13 13 12 11 10 10 10 10 10 9 9 9 9 9 8
16 17 18 15 15 16 16 16 15 16 15 14 15 16 17 15 15 16 15 15 15 14 13 16 15 15 15 14 13 13 13 12 11 11 10 10 10 10 10 9 9 9 9 8
16 16 16 12 14 15 15 12 14 14 14 14 12 13 14 16 16 15 15 16 15 15 13 14 15 15 15 14 13 13 13 12 12 11 10 10 10 10 10 9 9 9 8 8
15 16 16 13 13 14 11 9 12 13 13 14 12 11 11 15 15 15 15 15 15 16 15 14 15 15 14 13 13 12 12 12 12 11 11 10 10 10 10 10 9 9 8 8
12 10 10 11 12 12 11 11 12 12 12 13 13 13 14 15 15 15 14 13 12 12 15 15 15 15 13 13 12 12 12 12 12 11 11 11 10 10 10 10 9 9 9 9
11 9 8 8 11 11 11 11 11 12 12 12 13 13 14 14 15 15 14 14 12 11 12 14 14 14 13 12 12 12 12 12 11 11 11 10 10 10 10 10 10 9 9 9
10 8 8 7 8 10 10 10 11 10 11 11 12 12 13 13 14 14 14 14 14 13 11 12 14 13 13 13 12 12 12 11 11 11 11 10 10 10 10 10 10 9 9 9
7 5 8 6 5 7 7 9 9 9 10 10 10 11 11 12 13 13 13 14 14 13 13 11 13 13 13 12 12 12 12 11 11 11 11 11 10 10 10 10 10 9 9 9
4 4 5 5 4 4 5 7 8 8 8 9 9 9 10 10 11 12 12 12 14 14 13 13 13 13 12 12 12 12 12 12 11 10 11 11 11 11 11 11 10 10 10 9
4 4 5 3 3 3 5 4 5 7 7 7 6 7 7 9 9 10 11 11 12 13 13 13 12 12 12 12 12 12 12 12 12 11 11 10 11 11 11 11 11 11 10 10
1 3 2 2 3 3 3 3 4 4 6 7 7 7 7 7 8 9 10 10 10 11 12 13 13 12 11 12 12 12 13 13 12 11 10 11 10 11 11 11 11 11 11 11
1 0 0 0 1 1 1 1 1 2 4 5 6 7 7 7 7 7 8 9 9 9 10 10 12 13 12 12 12 12 12 12 12 11 10 11 10 9 9 11 12 12 12 12
3 3 4 4 4 4 3 1 0 1 1 2 4 5 6 7 7 7 7 7 8 8 8 9 9 11 12 12 11 11 10 9 9 8 10 9 12 9 9 10 9 9 12 12
1 2 2 2 3 3 4 4 4 4 2 0 1 3 5 5 6 7 7 7 7 7 8 7 8 9 10 10 10 11 10 10 9 8 9 11 11 9 10 9 10 10 10 9
1 1 1 1 1 2 2 3 3 3 3 4 3 3 2 4 5 6 6 6 7 7 7 7 7 7 7 8 9 9 9 9 10 10 10 9 11 10 11 10 10 10 11 11
1 0 -1 -0 -0 0 1 2 2 2 2 2 3 3 3 4 5 5 5 6 6 6 6 5 6 7 6 7 7 7 8 9 11 10 9 10 11 8 7 8 11 10 10 11
1 0 1 1 1 2 1 1 0 -0 -0 0 1 1 2 3 4 5 5 5 5 5 5 6 6 6 7 6 6 7 7 7 8 9 8 9 7 5 7 10 9 9 10 9
1 1 1 0 1 2 1 0 -0 0 0 0 -0 0 1 1 2 3 4 4 5 5 5 5 5 6 6 6 6 7 7 7 7 7 6 7 5 4 7 10 9 10 10 10
0 0 0 0 1 1 0 1 1 1 1 1 1 0 1 1 1 1 1 3 3 3 4 5 5 4 4 6 6 6 7 7 7 7 7 7 7 7 8 7 7 10 10 10
-1 -0 0 0 0 0 1 1 0 0 1 1 1 1 1 1 1 1 1 2 3 3 3 4 4 3 3 3 3 5 6 7 7 8 8 8 8 7 7 8 9 10 10 11
-1 -1 -0 0 0 0 0 0 0 1 1 1 2 1 1 1 1 1 1 2 2 2 2 2 2 1 1 3 2 1 5 5 6 7 8 8 9 8 8 8 9 9 9 10
-2 -1 -1 -1 -1 -1 -0 0 0 1 1 2 1 1 1 1 1 1 2 2 2 3 2 2 1 0 0 0 0 0 1 4 5 5 7 7 8 8 9 8 8 8 9 9
-2 -1 -1 -1 -1 -1 -1 -1 -0 -1 -1 0 1 1 2 1 1 2 2 2 1 1 1 1 1 1 1 1 1 1 -0 0 1 4 4 5 7 8 8 8 8 8 9 9
Height
3148 3147 3150 3153 3155 3160 3160 3160 3157 3155 3157 3156 3158 3161 3164 3166 3167 3166 3165 3164 3163 3163 3163 3159 3159 3160 3162 3164 3167 3168 3168 3168 3169 3169 3169 3169 3168 3169 3168 3170 3173 3177 3181 3183
3147 3147 3148 3150 3151 3153 3155 3158 3158 3157 3155 3157 3150 3157 3160 3164 3164 3165 3164 3163 3160 3158 3158 3155 3155 3157 3159 3161 3162 3164 3164 3164 3163 3165 3164 3164 3164 3164 3163 3165 3170 3174 3177 3180
3141 3143 3144 3145 3147 3148 3151 3153 3154 3155 3156 3155 3155 3157 3159 3161 3162 3161 3160 3160 3158 3154 3152 3151 3151 3153 3156 3159 3159 3160 3160 3159 3159 3160 3159 3159 3159 3159 3161 3164 3168 3171 3174 3178
3138 3137 3136 3138 3139 3144 3148 3150 3151 3152 3154 3155 3155 3156 3157 3159 3157 3156 3156 3154 3153 3151 3148 3147 3147 3149 3151 3154 3156 3156 3156 3156 3156 3156 3155 3154 3155 3157 3160 3162 3165 3168 3169 3173
3135 3135 3134 3137 3140 3143 3144 3146 3145 3147 3149 3151 3152 3154 3158 3153 3151 3151 3151 3150 3149 3146 3144 3143 3143 3144 3147 3150 3153 3153 3153 3153 3153 3152 3151 3151 3152 3155 3158 3162 3163 3164 3168 3171
3134 3131 3130 3136 3138 3140 3142 3145 3143 3145 3146 3147 3150 3152 3152 3147 3146 3145 3146 3144 3144 3142 3141 3137 3139 3140 3143 3146 3150 3151 3150 3151 3151 3150 3150 3150 3152 3154 3157 3160 3163 3165 3166 3169
3134 3134 3132 3134 3136 3139 3143 3145 3140 3141 3142 3143 3145 3146 3146 3144 3143 3143 3142 3139 3138 3138 3139 3135 3135 3136 3139 3143 3146 3148 3147 3148 3150 3149 3149 3150 3152 3154 3157 3159 3161 3163 3164 3166
3132 3130 3130 3131 3134 3138 3139 3138 3137 3139 3139 3140 3140 3142 3141 3140 3139 3138 3138 3136 3134 3134 3134 3132 3132 3133 3137 3141 3143 3144 3145 3145 3148 3148 3147 3148 3150 3154 3156 3157 3158 3160 3162 3163
3129 3130 3128 3128 3131 3132 3133 3133 3134 3135 3136 3136 3135 3135 3135 3135 3134 3134 3133 3132 3131 3130 3129 3129 3129 3130 3135 3139 3141 3141 3142 3142 3145 3147 3147 3147 3149 3150 3153 3155 3156 3157 3158 3161
3131 3130 3129 3128 3127 3128 3129 3130 3131 3131 3131 3132 3132 3131 3131 3130 3130 3129 3128 3127 3127 3129 3125 3125 3126 3129 3132 3135 3137 3138 3140 3141 3143 3144 3145 3146 3147 3148 3149 3151 3152 3153 3155 3157
3129 3126 3127 3128 3123 3125 3125 3125 3126 3126 3126 3127 3127 3126 3126 3125 3125 3125 3124 3123 3123 3123 3125 3122 3124 3126 3128 3131 3133 3135 3136 3138 3140 3141 3142 3143 3144 3145 3146 3147 3150 3151 3152 3153
3124 3120 3123 3122 3120 3121 3119 3120 3121 3120 3120 3121 3121 3121 3120 3120 3119 3119 3119 3119 3118 3118 3119 3119 3119 3122 3124 3125 3127 3130 3132 3133 3135 3137 3138 3139 3140 3141 3142 3143 3144 3146 3147 3147
3118 3115 3117 3119 3118 3115 3113 3114 3114 3114 3115 3113 3115 3115 3114 3113 3112 3113 3112 3113 3113 3113 3113 3113 3115 3116 3118 3121 3123 3124 3126 3129 3129 3132 3133 3135 3135 3136 3137 3138 3139 3141 3141 3143
3112 3110 3112 3112 3110 3108 3107 3106 3105 3107 3108 3107 3106 3106 3106 3106 3105 3104 3105 3106 3106 3107 3107 3106 3109 3110 3113 3114 3115 3118 3120 3122 3122 3124 3128 3129 3130 3130 3131 3132 3133 3134 3136 3138
3106 3106 3105 3104 3102 3101 3099 3098 3096 3096 3096 3096 3096 3096 3097 3097 3096 3096 3098 3098 3098 3100 3100 3100 3101 3103 3105 3107 3108 3110 3112 3113 3116 3118 3122 3124 3125 3126 3126 3126 3126 3128 3130 3131
3099 3099 3098 3097 3095 3093 3091 3089 3087 3085 3084 3084 3084 3084 3085 3085 3086 3087 3088 3089 3089 3090 3092 3094 3094 3094 3095 3097 3100 3100 3102 3101 3099 3092 3115 3116 3118 3119 3121 3121 3122 3123 3123 3124
3094 3092 3089 3087 3084 3082 3079 3078 3076 3075 3073 3072 3071 3071 3071 3071 3072 3074 3077 3079 3078 3078 3081 3083 3086 3087 3087 3087 3088 3090 3090 3085 3076 3077 3103 3108 3108 3110 3114 3117 3118 3117 3118 3119
3089 3086 3083 3079 3075 3072 3069 3066 3063 3061 3060 3060 3059 3058 3057 3057 3057 3059 3062 3065 3066 3067 3070 3073 3075 3077 3077 3077 3077 3078 3082 3083 3080 3074 3079 3094 3093 3095 3101 3105 3108 3112 3114 3112
3084 3081 3077 3073 3069 3064 3060 3055 3051 3048 3045 3044 3043 3043 3043 3044 3044 3045 3047 3049 3051 3053 3058 3063 3064 3066 3067 3068 3068 3068 3071 3073 3074 3077 3078 3084 3087 3085 3088 3098 3096 3098 3104 3104
3083 3078 3074 3069 3063 3056 3049 3043 3038 3034 3032 3030 3029 3029 3029 3031 3033 3034 3034 3034 3037 3040 3044 3047 3050 3053 3057 3059 3061 3060 3061 3063 3062 3061 3063 3073 3070 3055 3035 3086 3090 3086 3092 3094
3079 3074 3069 3062 3054 3046 3037 3028 3022 3019 3017 3016 3015 3015 3015 3016 3018 3020 3020 3020 3023 3026 3029 3032 3034 3038 3045 3047 3048 3052 3052 3052 3052 3050 3048 3042 3052 3044 3028 3046 3076 3080 3079 3085
3076 3070 3064 3056 3045 3035 3025 3017 3012 3008 3005 3003 3003 3003 3004 3004 3005 3004 3005 3006 3010 3013 3014 3016 3018 3022 3027 3034 3036 3041 3043 3045 3046 3045 3044 3042 3040 3043 3051 3062 3068 3066 3065 3071
3072 3066 3060 3051 3038 3027 3020 3013 3009 3003 2999 2995 2992 2992 2992 2993 2994 2992 2991 2994 2994 2996 2998 3000 3003 3006 3010 3014 3020 3025 3032 3034 3039 3041 3043 3047 3049 3051 3054 3056 3060 3051 3053 3060
3068 3063 3056 3048 3039 3026 3017 3011 3006 3001 2996 2992 2988 2985 2984 2983 2982 2982 2981 2980 2981 2982 2981 2983 2984 2987 2993 2995 3000 3008 3014 3021 3027 3032 3033 3034 3037 3040 3044 3042 3038 3042 3048 3053
3065 3059 3052 3044 3036 3025 3015 3008 3003 2998 2993 2989 2985 2982 2979 2977 2973 2972 2969 2968 2969 2969 2968 2968 2970 2972 2973 2977 2981 2989 2997 3003 3009 3016 3023 3026 3027 3029 3031 3033 3036 3039 3043 3046
3063 3057 3051 3043 3034 3025 3016 3006 2997 2991 2986 2982 2978 2974 2971 2968 2964 2961 2958 2955 2953 2953 2954 2955 2956 2958 2959 2962 2965 2971 2978 2985 2992 2998 3004 3010 3016 3020 3022 3025 3027 3030 3034 3038
3061 3055 3048 3042 3034 3026 3016 3007 2996 2987 2980 2975 2970 2966 2963 2959 2955 2951 2949 2945 2941 2939 2938 2941 2943 2944 2948 2951 2953 2956 2961 2969 2974 2978 2984 2990 2996 3002 3007 3012 3015 3018 3021 3023
Wind_Speed
24 20 13 18 20 20 25 26 28 25 18 15 12 6 9 8 9 11 9 7 9 9 17 23 22 23 22 26 24 22 26 21 20 23 22 24 25 22 22 21 23 24 23 24
21 21 20 22 20 19 21 22 22 24 26 17 26 13 10 8 10 12 12 12 11 14 15 23 22 24 19 21 20 20 21 24 24 23 23 23 21 20 19 22 22 22 23 22
17 18 21 24 23 19 19 19 19 21 22 19 19 12 12 14 15 17 13 15 14 18 20 19 23 23 22 20 20 20 19 23 24 21 23 23 21 19 18 19 19 20 22 22
17 9 14 16 16 18 18 16 16 18 15 16 15 16 14 15 15 14 17 20 19 21 24 17 20 25 25 24 20 19 16 21 18 20 21 21 19 19 18 20 18 19 20 21
17 14 9 8 5 6 9 2 5 13 12 12 11 9 12 5 14 16 20 22 18 19 21 17 19 26 25 24 20 17 12 12 14 14 15 12 17 17 19 18 18 17 19 20
14 14 13 10 3 9 10 11 14 16 16 16 14 16 16 15 18 25 19 18 12 14 15 20 16 24 27 25 19 16 9 9 10 9 9 12 15 18 17 14 14 16 20 19
19 17 9 1 5 6 9 4 11 14 11 10 5 10 14 16 21 22 21 15 12 13 14 23 15 22 24 25 21 18 14 9 9 10 11 14 16 18 17 15 13 11 15 15
22 22 19 10 5 5 6 4 10 11 12 12 8 8 11 16 18 20 21 14 13 16 17 20 14 22 23 22 21 18 21 14 12 9 11 14 18 17 17 14 12 11 13 13
3 4 4 3 8 10 7 9 12 12 13 15 14 13 14 16 18 21 18 14 11 11 17 16 14 18 22 20 19 17 19 18 17 15 11 11 14 20 18 17 16 13 12 13
3 2 3 3 11 10 11 14 16 17 15 15 17 18 19 18 20 22 18 16 14 8 17 16 17 20 23 21 20 18 17 16 19 20 18 16 16 18 22 19 17 14 15 15
9 7 10 6 16 22 19 21 20 21 21 21 21 21 22 22 23 23 18 16 19 19 13 20 21 26 27 23 23 20 19 16 16 20 21 20 21 20 21 20 17 17 16 16
3 4 14 11 13 23 24 30 29 29 29 26 28 28 26 24 26 26 22 18 17 20 24 22 26 31 32 29 27 24 24 24 20 18 21 23 23 24 22 23 19 20 19 20
7 14 15 12 13 15 25 30 33 34 33 34 31 29 31 31 29 28 28 23 22 20 22 28 28 34 37 35 34 30 29 33 23 26 25 24 24 24 24 23 21 21 22 21
17 24 24 18 20 23 32 31 34 34 33 32 29 31 27 30 33 34 31 28 26 25 23 26 30 30 35 39 39 36 39 35 35 33 32 29 26 23 24 26 25 23 23 22
12 18 19 22 26 28 30 30 33 35 37 40 39 36 35 34 34 35 36 34 31 28 26 23 27 33 33 37 37 32 39 53 42 36 32 33 30 26 24 26 26 24 25 27
17 17 19 21 23 25 27 28 29 29 32 34 37 41 44 43 41 40 37 38 36 34 31 26 26 27 29 38 35 34 39 38 49 42 34 35 34 30 29 27 23 21 23 21
23 24 26 28 31 32 32 31 30 31 33 33 34 36 39 43 47 46 44 40 40 41 37 32 28 31 33 34 38 41 40 36 44 47 33 34 38 33 30 29 27 25 19 16
21 22 24 26 28 30 32 35 38 39 37 34 35 37 39 40 42 44 47 46 45 44 42 37 32 31 34 37 37 41 43 45 39 35 39 40 41 37 39 35 31 29 26 26
22 22 23 25 27 30 32 34 36 38 40 41 41 42 40 42 43 44 44 47 51 49 48 41 38 33 32 34 34 37 38 42 44 45 42 46 50 47 38 40 35 30 29 32
21 26 28 29 30 33 37 37 37 37 36 38 41 41 43 44 43 45 46 47 48 49 47 44 43 42 37 33 32 30 32 33 39 53 61 54 63 75 55 49 39 32 28 31
26 27 31 37 39 39 40 39 38 37 35 33 34 37 37 39 42 44 47 48 47 46 48 50 50 50 44 41 38 31 29 28 26 28 31 36 45 38 69 33 38 37 29 28
28 30 36 43 45 44 40 33 28 28 29 30 32 31 33 34 37 41 44 46 47 48 49 48 49 53 54 49 47 42 35 32 28 26 25 24 17 19 34 34 39 40 34 36
29 32 36 45 48 41 32 23 20 21 23 24 24 25 27 31 34 37 39 42 43 42 43 49 52 51 48 51 51 51 48 45 39 36 34 29 28 30 28 25 24 29 29 31
28 30 34 40 46 38 27 19 19 21 24 22 21 17 21 28 31 33 36 36 39 42 47 50 49 48 49 53 50 48 52 52 51 47 45 42 39 34 32 32 30 30 29 30
25 31 35 38 46 47 36 23 21 23 21 20 20 21 23 25 30 32 36 37 36 38 42 44 49 51 52 51 51 45 49 51 55 53 54 52 50 47 44 41 41 40 38 37
27 28 30 35 44 45 47 46 29 25 24 24 23 23 24 25 28 29 31 35 40 43 43 43 40 42 42 47 49 40 42 48 48 53 57 57 59 57 56 53 48 47 46 42
25 26 28 31 37 44 47 49 49 37 28 27 28 25 25 23 24 26 29 33 33 34 39 40 42 40 40 38 37 40 42 38 41 48 48 53 61 62 62 62 60 59 57 55
Wind_Direction
232 251 233 236 225 232 239 248 257 260 270 253 290 269 304 314 332 343 334 311 287 250 238 243 243 247 249 244 249 256 258 265 267 263 266 276 282 276 264 235 217 217 219 218
236 240 241 245 243 239 234 241 253 266 272 271 253 282 295 284 304 321 323 310 290 302 280 280 255 246 243 239 241 253 264 260 268 260 268 278 278 267 241 217 212 218 216 218
235 241 245 238 237 234 239 239 245 249 259 274 275 276 279 281 291 301 305 306 290 293 304 283 262 241 239 243 238 249 262 255 263 262 273 277 266 241 221 209 213 219 214 218
244 269 241 239 242 232 242 248 256 261 264 268 262 272 288 291 297 307 312 314 296 300 297 288 263 233 234 233 235 248 272 253 259 272 275 268 242 216 212 209 209 213 217 220
233 236 239 201 200 226 243 251 286 254 285 297 305 283 287 297 294 307 309 303 287 277 286 285 257 236 237 233 241 260 260 273 266 266 260 242 210 205 201 208 213 212 218 215
233 261 262 100 196 209 224 218 250 260 255 271 278 274 257 312 323 312 315 303 266 258 255 288 253 239 236 229 235 241 227 244 252 255 231 209 202 195 201 201 212 224 225 221
235 251 242 43 240 251 250 262 268 260 251 250 282 258 292 289 303 314 319 291 274 264 237 267 258 244 236 223 228 238 228 240 247 240 215 198 198 195 192 191 198 207 217 221
243 251 243 264 268 217 236 307 282 256 250 246 266 309 299 278 294 311 320 288 271 274 267 262 267 247 231 213 227 232 233 232 240 234 217 206 198 206 205 198 202 215 222 220
342 40 228 247 197 216 218 252 264 276 263 260 255 255 265 271 284 302 312 287 266 270 265 262 252 239 211 213 226 227 230 229 231 236 230 220 215 209 216 216 215 221 223 229
249 221 112 296 274 255 254 259 262 269 277 273 271 268 266 272 279 288 294 284 248 253 265 248 244 216 200 212 210 216 229 233 237 238 238 232 229 226 222 226 227 230 238 232
228 231 254 285 278 262 266 265 266 275 279 281 279 278 276 275 274 277 280 283 258 245 229 254 231 213 209 210 207 216 222 226 241 242 242 239 239 242 243 243 242 245 248 239
253 248 221 242 269 263 268 266 270 275 276 279 280 281 280 278 272 274 274 271 271 259 247 235 225 216 214 215 213 224 222 224 228 245 249 242 238 242 243 243 235 234 232 240
241 259 252 269 282 290 272 269 269 270 271 274 276 276 272 275 275 273 277 275 268 270 259 247 243 225 220 225 234 228 236 248 232 236 246 250 239 237 245 242 237 230 237 235
261 262 260 269 284 285 276 279 277 271 270 272 274 269 273 272 272 272 273 280 274 262 260 252 242 237 229 228 233 238 246 240 235 235 237 244 244 235 234 239 235 233 233 234
289 282 282 281 278 277 278 282 281 279 274 268 266 269 268 267 268 269 270 273 275 269 258 249 247 244 235 230 231 251 259 251 241 231 232 234 243 241 233 231 235 229 232 232
283 289 292 291 290 291 292 288 286 284 278 274 270 265 263 263 265 266 267 269 272 270 265 259 239 243 246 250 247 232 228 231 231 215 224 236 232 237 232 230 227 232 238 242
295 292 288 286 287 286 283 281 280 282 279 275 269 266 264 263 260 260 263 265 267 267 268 263 255 245 240 244 241 237 244 244 247 252 218 229 232 228 229 231 230 230 232 238
313 309 307 303 301 298 293 286 280 276 273 274 275 267 261 260 260 258 255 257 260 261 263 265 264 258 253 252 247 243 239 245 256 245 223 226 223 227 229 229 227 230 231 239
3 351 338 325 315 311 309 302 290 283 275 269 262 264 265 261 258 257 256 253 252 255 259 260 260 257 257 262 264 259 254 250 244 243 235 232 238 223 215 227 226 223 228 238
348 356 349 341 331 321 313 306 298 286 281 277 269 266 263 263 263 262 260 258 255 254 253 254 253 251 250 252 255 259 262 251 248 241 242 244 253 236 260 230 217 213 222 231
348 351 346 344 337 328 317 307 301 292 285 277 277 269 266 265 260 261 262 261 259 259 257 254 252 254 250 246 249 250 253 255 249 238 244 277 238 271 235 210 220 215 213 226
350 351 352 351 343 334 329 320 314 308 301 288 274 270 265 267 268 264 259 258 261 262 261 260 259 255 252 247 246 243 242 251 255 263 258 248 253 237 245 217 211 213 223 227
348 350 350 356 351 342 337 332 331 331 329 318 296 267 268 268 263 264 265 262 259 260 261 256 257 259 259 255 244 243 240 239 242 243 246 244 236 232 226 216 238 238 233 237
346 347 353 360 360 353 340 336 332 336 338 330 332 321 289 277 272 267 263 263 260 260 258 258 255 252 249 252 255 245 241 241 240 237 239 238 242 245 242 244 235 234 237 241
349 349 353 357 1 8 -0 335 328 323 324 333 321 314 309 298 289 282 278 272 267 263 256 255 251 251 253 251 248 246 247 241 239 239 234 237 239 240 245 242 241 243 241 243
354 356 358 355 359 2 7 7 348 328 320 320 324 314 307 294 292 289 285 282 274 267 263 261 255 250 249 250 251 249 247 247 244 243 241 239 238 240 244 248 249 248 248 248
343 355 354 355 3 7 7 6 8 0 343 329 328 331 329 316 308 295 290 287 285 274 268 254 246 243 245 250 260 260 246 243 245 242 243 244 242 241 240 243 248 252 255 258